Regional Weather Roundup
Issued by NWS Cleveland, OH

Home | Current Version | Previous Version | Text Only | Print | Product List | Glossary Off
Versions: 1 2 3 4 5 6 7 8 9 10 11 12 13 14 15 16 17 18 19 20 21 22 23 24 25 26 27 28 29 30 31 32 33 34 35 36 37 38 39 40 41 42 43 44 45 46 47 48 49 50

000
ASUS41 KCLE 280210
RWRCLE
OHIO REGIONAL WEATHER ROUNDUP
NATIONAL WEATHER SERVICE WILMINGTON, OH
1000 PM EDT WED AUG 27 2014

NOTE: "FAIR" INDICATES FEW OR NO CLOUDS BELOW 12,000 FEET WITH NO
SIGNIFICANT WEATHER AND/OR OBSTRUCTIONS TO VISIBILITY.

OHZ001>008-015>018-024>027-034-035-043-044-280300-
   NORTHWEST OHIO

CITY           SKY/WX    TMP DP  RH WIND       PRES   REMARKS
DEFIANCE       MOCLDY    70  61  73 N5        30.10R
FINDLAY        MOCLDY    73  64  73 NE7       30.08R
TOLEDO EXPRESS CLOUDY    70  59  68 N7        30.10R
TOLEDO METCALF CLOUDY    72  60  66 CALM      30.10R
LIMA           PTCLDY    71  63  75 NE6       30.09R
$$

OHZ009>014-019>023-028>033-038-089-280300-
   NORTHEAST OHIO

CITY           SKY/WX    TMP DP  RH WIND       PRES   REMARKS
CLE-HOPKINS    CLOUDY    69  60  73 NE10      30.11R
CLE-LAKEFRONT  MOCLDY    70  60  70 N14       30.08R
CUY CO. ARPT   MOCLDY    70  63  78 N14       30.11R
LORAIN-ELYRIA  CLOUDY    68  62  81 NE3       30.10R
ASHTABULA      PTCLDY    64  57  78 N5        30.10R
AKRON-CANTON   MOCLDY    67  59  75 NE6       30.10R
WOOSTER        MOCLDY    67  61  81 NE3       30.11R
MANSFIELD      MOCLDY    66  63  90 NE3       30.11R
YOUNGSTOWN     MOCLDY    65  59  81 N7        30.10R
$$

OHZ042-051>053-060>062-070>072-077>081-280300-
  SOUTHWEST OHIO

CITY           SKY/WX    TMP DP  RH WIND       PRES   REMARKS
CINC-COVINGTON PTCLDY    81  71  71 N8        30.05R
CINC-LUNKEN    PTCLDY    81  71  71 N7        30.04R
HAMILTON       CLEAR     78  71  79 N5        30.05S
DAYTON         CLEAR     75  67  76 N6        30.08S
WRIGHT-PAT AFB CLEAR     76  69  79 N6        30.07R
DAYTON GENERAL CLEAR     78  69  73 N10       30.06R
WILMINGTON     CLEAR     76  69  79 N7        30.05S
$$

OHZ036-037-039>041-045>050-054>059-063>069-073>076-082>088-280300-
  CENTRAL AND SOUTHEAST OHIO

CITY           SKY/WX    TMP DP  RH WIND       PRES   REMARKS
COLUMBUS       CLEAR     77  68  73 N10       30.05R
OSU AIRPORT    CLEAR     73  67  81 N10       30.06R
BOLTON FIELD   CLEAR     74  70  86 N9        30.06S
RICKENBACK AFB CLEAR     78  66  67 N7        30.04R
NEWARK         CLEAR     73  66  78 VRB6      30.06R
MARION         PTCLDY    68  63  84 NE7       30.09R
LANCASTER      CLEAR     73  69  87 N5        30.06R
ZANESVILLE     CLEAR     73  67  81 N7        30.07R
NEW PHILLY     MOCLDY    70  63  78 N8        30.08R
$$



USA.gov is the U.S. government's official web portal to all federal, state and local government web resources and services.